PRATHAM

Satellite information

Favourite Embed

Satellite Type and Status

PAYLOADIN ORBIT

Key statistics

Satellite PRATHAM at a glance.

Uptime

3151

Days in orbit

Revolutions

≈ 14.7

Per day

Orbit

SSO

Sun Synchronous Orbit

Inclination

97.8

Latest

Satellite identification and parameters

Extended collection of information and parameters for PRATHAM.

Object identification

Identified? True

Debris? False

Object name: PRATHAM

International designator: 2016-059A

Object number (NORAD): 41783

Object ID (CCSDS): 41783

Country: INDIA (IND)

Current information (Y/N): Y

RCS size: SMALL

Orbital parameters

Period: 98.202 minutes

Inclination: 97.8244 deg

SMA: 7050.835 km

Apoapsis: 695.96 km

Periapsis: 649.44 km

RAAN: 142.5834 deg

Eccentricy: 0.0032989

Argument of periapsis: 55.7157 deg

Mean anomaly: 304.7164 deg

Mean motion: 14.66364348 rev/day

Mean motion (dot): 0.00000955 rev/day2

B* drag term: 0.00017981 1/REarth

Two-line elements (TLE)

Creation date: May 12, 2025, 10:56 p.m.

Reference frame: TEME

Reference center: EARTH

Epoch: May 12, 2025, 2:27 p.m. UTC

TLE line 0: 0 PRATHAM

TLE line 1: 1 41783U 16059A 25132.60253230 .00000955 00000-0 17981-3 0 9996

TLE line 2: 2 41783 97.8244 142.5834 0032989 55.7157 304.7164 14.66364348460793

Live tracking on map

Real-time ground track for satellite PRATHAM.

In-orbit conjunctions

There are no conjunctions computed for PRATHAM, at the moment. Check back to stay up to date, as we update our databases every day.

Go to all conjunctions

Associated space launch

ScatSat-1 is a microsatellite of 371 kg and a mission life of 5 years. It is tasked to provide weather forecasting, cyclone prediction, and tracking services to India. This launch will also carry 7 other satellites, the 117kg Alsat-2B, the 103kg Alsat-1B & the 7kg Alsat-1N earth observation satellites for Algerian Space Agency, the 44kg Pathfinder-1 earth imager for Blacksky, the 8kg CanX-7 deorbiter for UTIAS Space Flight Laboratory, the 10kg Pratham Ionospheric Tomographer for IIT Bombay and the 5.25kg PiSat earth imager for PES University.

PRATHAM was lifted into orbit during the mission ‘PSLV | SCATSat-1’, on board a PSLV space rocket.

The launch took place on Sept. 26, 2016, 3:42 a.m. from Satish Dhawan Space Centre First Launch Pad.

For more information about the launch, click the button.

Launch to space PSLV | SCATSat-1
PSLV | SCATSat-1

Agency: N/A

Status: Launch Successful

Launch date: Sept. 26, 2016, 3:42 a.m. UTC

Rocket: PSLV

Launch pad: Satish Dhawan Space Centre First Launch Pad

Location: Satish Dhawan Space Centre, India

...

Latest news about this satellite

There are no fresh news available about this satellite. Check back as we update our databases every day.


Newsletter sign-up

Weekly statistics, charts and insights to help you stay on top of the space industry.